SCP
0 0 0 -0 0 0 0 0 0 0 0 0 0 0 0 0 -0 0 -0 -0 -0 -0 -0 -0 -0 -0 -0 -0 -0 -0 -0 0 0 0 0 0 -0 -0
0 0 -0 0 0 0 0 0 0 0 0 0 0 0 0 0 0 0 0 0 -0 -0 -0 -0 -0 -0 -0 -0 -0 -0 -0 -0 -0 -0 0 0 0 -0
0 0 0 0 0 0 1 0 0 0 0 0 0 0 0 0 0 0 0 0 0 0 0 0 -0 -0 -0 -0 -0 -0 -0 -0 -0 -0 -0 -0 -0 0
0 0 0 0 0 1 1 0 0 0 0 0 1 1 0 0 0 0 0 0 0 0 0 0 0 0 0 0 0 0 0 0 0 0 0 0 0 0
0 0 0 0 0 1 1 1 1 1 0 0 0 0 0 0 0 1 1 0 0 0 0 0 0 0 0 0 0 0 0 0 0 0 0 0 0 0
0 0 0 0 0 0 1 0 0 1 0 0 0 0 0 0 0 0 0 1 1 0 0 0 0 0 0 0 0 0 0 0 0 0 0 0 0 0
0 -0 0 0 0 0 0 0 0 0 1 0 0 0 0 0 0 1 1 0 1 1 1 1 1 1 0 0 0 0 0 0 0 0 0 0 0 0
0 0 0 0 0 0 0 0 0 0 -0 0 0 0 0 0 0 1 1 0 0 0 1 0 1 1 1 1 1 0 0 0 0 0 0 0 0 0
0 0 0 0 0 0 0 0 0 0 0 0 0 0 0 0 1 1 1 1 0 0 1 1 1 1 1 1 0 0 0 0 0 0 0 0 0 0
0 0 0 0 0 0 0 0 0 0 0 0 0 0 0 1 1 0 1 1 1 1 1 1 0 0 0 0 0 0 0 0 0 0 0 0 0 0
0 0 0 0 0 0 0 0 0 0 0 0 0 0 0 0 0 1 0 1 1 1 1 0 0 0 1 0 0 0 0 0 0 0 0 0 0 0
0 0 0 0 0 0 0 0 0 0 0 0 0 0 0 0 0 0 1 1 1 1 0 1 0 0 0 0 0 1 0 0 0 0 0 0 0 0
0 0 0 0 0 0 0 0 0 0 0 0 0 0 0 0 0 0 0 0 0 0 0 1 0 0 1 0 0 0 1 1 1 0 0 0 0 0
0 0 0 0 0 0 0 0 0 0 0 0 0 0 0 0 0 0 0 0 0 0 0 1 0 1 1 1 1 0 0 1 1 1 1 0 0 0
0 0 0 0 0 0 0 0 0 0 0 0 0 0 0 0 0 0 0 0 0 0 0 0 1 0 1 0 0 0 0 0 1 1 1 1 1 0
0 0 0 0 0 0 0 0 0 0 0 0 0 0 0 0 0 0 0 0 0 0 0 0 0 0 0 0 0 0 0 0 0 1 1 1 1 1
0 0 0 0 0 0 0 0 0 0 0 0 0 0 0 0 0 0 0 0 0 0 0 0 0 0 0 0 0 0 0 0 0 1 1 1 1 1
0 0 0 0 0 0 0 0 0 0 0 0 0 0 0 0 0 0 0 0 0 0 0 0 0 0 0 0 0 0 0 1 1 0 0 1 1 1
0 0 0 0 0 0 0 0 0 0 0 0 0 0 0 0 0 0 0 0 0 0 0 0 0 0 0 0 0 0 0 0 0 0 0 0 0 0
0 0 0 0 0 0 0 0 0 0 0 0 0 0 0 0 0 0 0 0 0 0 0 0 0 0 0 0 0 0 -0 0 0 0 0 0 0 0
0 0 0 0 0 0 0 0 0 0 0 0 0 0 0 0 0 0 0 0 0 0 0 0 0 0 0 0 0 0 0 0 0 0 0 0 0 0
0 0 0 0 0 0 0 0 0 0 0 0 0 0 0 0 0 0 0 0 0 0 0 0 0 0 0 0 0 0 0 0 0 0 0 0 0 0
0 0 0 0 0 0 0 0 0 0 0 0 0 0 0 0 0 0 0 0 0 0 0 0 0 0 0 0 0 0 0 0 0 0 0 0 0 0
Wind_Speed_500mb
24 27 26 28 31 33 30 32 33 26 24 18 16 18 18 28 30 35 37 33 34 34 36 38 37 36 37 36 36 37 41 46 48 48 46 44 41 40
26 24 25 25 26 27 32 30 34 36 34 21 17 19 14 13 27 33 31 33 37 38 39 40 43 45 44 41 38 37 38 41 44 50 51 50 49 48
31 29 26 25 29 31 30 32 35 38 38 34 38 35 30 25 21 19 26 33 32 36 39 43 45 45 46 48 47 46 43 42 43 46 51 52 51 49
31 36 35 37 34 32 32 28 31 36 40 50 43 42 40 33 30 33 30 28 35 34 35 37 48 50 50 49 49 49 49 48 49 48 50 54 53 51
34 33 36 39 31 33 33 30 28 29 39 43 49 41 46 44 39 36 35 38 42 44 44 41 43 54 56 54 53 52 51 51 52 53 52 55 56 54
39 38 38 41 43 44 35 29 25 36 36 42 49 43 44 44 47 46 43 44 43 35 41 44 45 49 60 61 62 61 58 57 57 58 58 56 58 58
33 35 43 52 46 39 39 39 41 31 33 34 42 43 38 35 40 36 43 39 47 55 52 54 54 55 55 66 71 67 64 62 62 62 63 63 61 62
27 23 26 39 46 41 36 38 32 25 25 29 29 41 43 41 34 37 35 34 37 32 45 55 43 58 62 63 66 75 77 72 68 66 66 66 68 68
23 19 19 24 35 43 40 37 29 31 28 32 42 43 38 34 35 39 43 43 39 37 43 48 43 55 59 52 68 71 71 75 72 69 67 66 68 69
19 18 16 16 19 17 14 16 20 26 30 36 41 44 48 48 52 56 58 56 55 53 47 61 51 54 57 65 64 65 80 79 75 71 70 68 68 71
14 17 18 19 17 16 16 16 14 15 17 19 20 23 27 33 37 38 41 45 50 48 40 50 43 50 48 63 66 68 57 73 74 78 78 76 76 74
10 14 17 21 23 21 20 21 20 20 20 21 22 24 27 28 29 31 31 38 43 51 40 39 38 39 42 40 48 42 50 56 69 76 82 84 82 76
9 9 10 12 16 20 22 25 26 29 27 29 30 31 32 32 31 33 36 40 44 47 42 47 49 48 56 57 51 48 51 52 59 65 74 84 85 89
17 17 15 12 10 12 16 20 23 22 21 24 27 29 29 30 32 39 45 49 51 55 62 59 63 58 56 61 59 51 46 48 49 57 67 75 78 79
19 20 21 19 17 15 14 13 12 13 16 18 16 15 17 22 26 29 33 38 41 47 51 53 54 59 64 68 70 64 60 62 58 64 60 60 63 76
11 10 10 12 13 14 14 15 16 17 19 20 21 25 30 32 32 29 31 31 34 35 34 40 44 46 56 59 58 66 65 68 58 70 63 62 63 62
12 10 10 13 14 17 18 19 17 17 19 23 26 30 34 37 40 44 44 47 43 37 40 39 39 40 48 55 60 64 63 66 62 64 67 73 76 76
15 17 19 20 22 24 25 26 27 28 29 30 31 33 37 39 41 44 45 44 44 42 48 52 56 59 46 38 34 38 47 53 56 55 50 56 67 68
21 21 20 19 21 22 23 24 26 27 30 32 35 36 36 36 39 40 42 43 41 38 38 39 41 43 46 49 46 37 43 49 50 53 59 64 69 70
19 18 17 19 21 20 21 21 26 30 33 35 36 38 38 36 35 36 39 39 38 39 43 40 38 41 47 55 61 69 51 48 44 50 51 52 57 67
16 16 17 17 19 21 23 25 33 34 39 39 37 39 40 40 44 42 36 43 43 41 45 41 40 39 42 45 54 60 59 49 52 55 58 53 57 62
17 17 18 20 23 26 27 26 25 28 29 33 36 39 39 38 37 42 41 45 42 42 46 49 45 45 43 45 53 54 62 55 48 55 55 55 54 62
22 24 26 26 29 31 27 26 26 29 29 41 46 44 45 42 39 40 38 41 44 46 46 48 47 41 41 42 49 51 50 54 54 53 50 51 61 60
Wind_Direction_500mb
249 247 253 258 261 258 263 261 248 254 271 269 268 262 266 236 222 222 229 228 231 237 236 236 237 239 240 240 241 242 242 245 245 241 243 242 243 242
265 254 252 256 264 262 255 259 248 248 257 265 272 253 263 250 224 223 227 229 228 233 238 237 239 241 243 245 244 245 247 248 247 241 237 240 243 243
274 266 254 252 253 255 254 253 253 248 248 258 262 267 265 260 257 237 231 235 232 234 240 244 242 242 242 245 248 248 247 249 249 247 242 239 241 242
274 255 253 256 255 254 256 254 251 249 255 256 258 263 262 264 266 257 252 239 232 239 250 253 247 244 244 244 246 247 248 249 249 249 247 243 241 242
272 258 253 256 261 270 254 249 251 252 249 250 257 261 260 258 254 255 259 258 253 252 257 258 253 245 245 244 247 247 247 249 249 249 249 246 244 244
276 272 249 251 261 293 252 242 277 266 251 248 247 252 260 259 252 254 257 258 258 258 261 260 256 249 244 246 248 249 247 246 248 249 248 247 244 243
270 273 254 250 254 280 259 255 289 258 242 249 247 255 258 256 257 260 262 258 261 262 263 267 268 259 254 247 246 245 248 251 250 247 247 247 247 243
278 269 256 253 257 269 258 258 271 243 248 251 252 257 261 264 263 261 259 257 265 267 270 268 257 262 262 258 253 250 250 253 253 253 251 250 248 249
282 274 259 249 258 266 264 258 245 245 262 265 262 252 253 258 268 268 265 260 263 262 276 274 261 265 261 262 264 257 250 247 248 250 250 251 251 250
277 280 285 288 288 300 284 267 265 265 272 271 265 267 263 265 270 276 269 265 269 272 268 272 269 266 272 274 271 269 257 247 240 245 249 251 251 251
260 265 268 269 280 289 296 296 290 280 276 279 282 282 281 272 268 269 268 270 272 275 276 276 274 275 272 268 268 269 270 241 242 247 251 250 252 253
280 273 257 259 267 270 275 279 281 276 273 270 273 279 282 286 282 279 279 275 279 284 290 274 279 283 282 277 282 275 262 250 252 254 251 252 250 248
323 321 314 300 290 291 285 289 287 287 287 285 283 282 280 278 283 285 285 281 279 277 280 278 280 275 266 272 273 279 274 262 258 255 253 251 250 247
48 41 34 14 344 317 304 305 310 316 311 303 301 300 293 289 286 283 282 282 280 280 283 280 277 278 277 276 274 276 270 266 264 265 264 261 255 250
47 39 29 19 16 11 12 4 351 345 338 336 349 338 331 320 310 310 299 297 292 287 284 283 280 278 275 277 280 279 273 267 265 268 265 261 262 264
44 24 1 345 339 335 327 327 330 328 326 322 313 309 310 311 312 313 320 317 314 310 302 295 290 286 282 281 281 280 278 276 277 271 266 262 262 260
29 13 17 17 9 7 3 355 354 348 342 336 330 324 318 313 310 309 308 306 306 305 304 303 298 301 286 285 287 284 286 284 283 278 275 271 270 269
55 56 51 50 46 40 32 24 16 9 2 356 349 342 334 329 322 319 319 315 312 312 310 305 300 303 306 294 295 294 287 286 286 284 277 278 279 277
52 53 52 50 42 33 24 17 11 4 359 354 350 348 343 337 334 329 322 321 320 319 317 319 315 315 312 302 294 296 295 298 295 291 289 286 286 283
42 43 37 32 23 13 5 1 359 357 354 350 346 344 343 339 332 327 325 320 316 315 317 320 322 322 302 297 301 298 301 295 293 292 291 287 284 282
12 12 11 5 357 351 346 344 343 344 344 345 343 341 340 338 335 332 322 319 314 311 312 311 311 314 313 309 300 299 299 294 294 289 290 286 290 290
327 335 336 338 340 340 334 331 327 327 336 344 341 339 337 335 331 329 325 323 321 316 311 315 317 318 310 304 300 302 303 298 291 294 290 289 279 284
311 304 307 313 320 325 322 316 312 317 324 338 341 336 334 331 327 324 315 320 322 320 320 315 313 315 310 313 306 301 303 307 306 301 292 289 291 289
Wind_Speed_850mb
24 27 26 28 31 33 30 32 33 26 24 18 16 18 18 28 30 35 37 33 34 34 36 38 37 36 37 36 36 37 41 46 48 48 46 44 41 40
26 24 25 25 26 27 32 30 34 36 34 21 17 19 14 13 27 33 31 33 37 38 39 40 43 45 44 41 38 37 38 41 44 50 51 50 49 48
31 29 26 25 29 31 30 32 35 38 38 34 38 35 30 25 21 19 26 33 32 36 39 43 45 45 46 48 47 46 43 42 43 46 51 52 51 49
31 36 35 37 34 32 32 28 31 36 40 50 43 42 40 33 30 33 30 28 35 34 35 37 48 50 50 49 49 49 49 48 49 48 50 54 53 51
34 33 36 39 31 33 33 30 28 29 39 43 49 41 46 44 39 36 35 38 42 44 44 41 43 54 56 54 53 52 51 51 52 53 52 55 56 54
39 38 38 41 43 44 35 29 25 36 36 42 49 43 44 44 47 46 43 44 43 35 41 44 45 49 60 61 62 61 58 57 57 58 58 56 58 58
33 35 43 52 46 39 39 39 41 31 33 34 42 43 38 35 40 36 43 39 47 55 52 54 54 55 55 66 71 67 64 62 62 62 63 63 61 62
27 23 26 39 46 41 36 38 32 25 25 29 29 41 43 41 34 37 35 34 37 32 45 55 43 58 62 63 66 75 77 72 68 66 66 66 68 68
23 19 19 24 35 43 40 37 29 31 28 32 42 43 38 34 35 39 43 43 39 37 43 48 43 55 59 52 68 71 71 75 72 69 67 66 68 69
19 18 16 16 19 17 14 16 20 26 30 36 41 44 48 48 52 56 58 56 55 53 47 61 51 54 57 65 64 65 80 79 75 71 70 68 68 71
14 17 18 19 17 16 16 16 14 15 17 19 20 23 27 33 37 38 41 45 50 48 40 50 43 50 48 63 66 68 57 73 74 78 78 76 76 74
10 14 17 21 23 21 20 21 20 20 20 21 22 24 27 28 29 31 31 38 43 51 40 39 38 39 42 40 48 42 50 56 69 76 82 84 82 76
9 9 10 12 16 20 22 25 26 29 27 29 30 31 32 32 31 33 36 40 44 47 42 47 49 48 56 57 51 48 51 52 59 65 74 84 85 89
17 17 15 12 10 12 16 20 23 22 21 24 27 29 29 30 32 39 45 49 51 55 62 59 63 58 56 61 59 51 46 48 49 57 67 75 78 79
19 20 21 19 17 15 14 13 12 13 16 18 16 15 17 22 26 29 33 38 41 47 51 53 54 59 64 68 70 64 60 62 58 64 60 60 63 76
11 10 10 12 13 14 14 15 16 17 19 20 21 25 30 32 32 29 31 31 34 35 34 40 44 46 56 59 58 66 65 68 58 70 63 62 63 62
12 10 10 13 14 17 18 19 17 17 19 23 26 30 34 37 40 44 44 47 43 37 40 39 39 40 48 55 60 64 63 66 62 64 67 73 76 76
15 17 19 20 22 24 25 26 27 28 29 30 31 33 37 39 41 44 45 44 44 42 48 52 56 59 46 38 34 38 47 53 56 55 50 56 67 68
21 21 20 19 21 22 23 24 26 27 30 32 35 36 36 36 39 40 42 43 41 38 38 39 41 43 46 49 46 37 43 49 50 53 59 64 69 70
19 18 17 19 21 20 21 21 26 30 33 35 36 38 38 36 35 36 39 39 38 39 43 40 38 41 47 55 61 69 51 48 44 50 51 52 57 67
16 16 17 17 19 21 23 25 33 34 39 39 37 39 40 40 44 42 36 43 43 41 45 41 40 39 42 45 54 60 59 49 52 55 58 53 57 62
17 17 18 20 23 26 27 26 25 28 29 33 36 39 39 38 37 42 41 45 42 42 46 49 45 45 43 45 53 54 62 55 48 55 55 55 54 62
22 24 26 26 29 31 27 26 26 29 29 41 46 44 45 42 39 40 38 41 44 46 46 48 47 41 41 42 49 51 50 54 54 53 50 51 61 60
Wind_Direction_850mb
249 247 253 258 261 258 263 261 248 254 271 269 268 262 266 236 222 222 229 228 231 237 236 236 237 239 240 240 241 242 242 245 245 241 243 242 243 242
265 254 252 256 264 262 255 259 248 248 257 265 272 253 263 250 224 223 227 229 228 233 238 237 239 241 243 245 244 245 247 248 247 241 237 240 243 243
274 266 254 252 253 255 254 253 253 248 248 258 262 267 265 260 257 237 231 235 232 234 240 244 242 242 242 245 248 248 247 249 249 247 242 239 241 242
274 255 253 256 255 254 256 254 251 249 255 256 258 263 262 264 266 257 252 239 232 239 250 253 247 244 244 244 246 247 248 249 249 249 247 243 241 242
272 258 253 256 261 270 254 249 251 252 249 250 257 261 260 258 254 255 259 258 253 252 257 258 253 245 245 244 247 247 247 249 249 249 249 246 244 244
276 272 249 251 261 293 252 242 277 266 251 248 247 252 260 259 252 254 257 258 258 258 261 260 256 249 244 246 248 249 247 246 248 249 248 247 244 243
270 273 254 250 254 280 259 255 289 258 242 249 247 255 258 256 257 260 262 258 261 262 263 267 268 259 254 247 246 245 248 251 250 247 247 247 247 243
278 269 256 253 257 269 258 258 271 243 248 251 252 257 261 264 263 261 259 257 265 267 270 268 257 262 262 258 253 250 250 253 253 253 251 250 248 249
282 274 259 249 258 266 264 258 245 245 262 265 262 252 253 258 268 268 265 260 263 262 276 274 261 265 261 262 264 257 250 247 248 250 250 251 251 250
277 280 285 288 288 300 284 267 265 265 272 271 265 267 263 265 270 276 269 265 269 272 268 272 269 266 272 274 271 269 257 247 240 245 249 251 251 251
260 265 268 269 280 289 296 296 290 280 276 279 282 282 281 272 268 269 268 270 272 275 276 276 274 275 272 268 268 269 270 241 242 247 251 250 252 253
280 273 257 259 267 270 275 279 281 276 273 270 273 279 282 286 282 279 279 275 279 284 290 274 279 283 282 277 282 275 262 250 252 254 251 252 250 248
323 321 314 300 290 291 285 289 287 287 287 285 283 282 280 278 283 285 285 281 279 277 280 278 280 275 266 272 273 279 274 262 258 255 253 251 250 247
48 41 34 14 344 317 304 305 310 316 311 303 301 300 293 289 286 283 282 282 280 280 283 280 277 278 277 276 274 276 270 266 264 265 264 261 255 250
47 39 29 19 16 11 12 4 351 345 338 336 349 338 331 320 310 310 299 297 292 287 284 283 280 278 275 277 280 279 273 267 265 268 265 261 262 264
44 24 1 345 339 335 327 327 330 328 326 322 313 309 310 311 312 313 320 317 314 310 302 295 290 286 282 281 281 280 278 276 277 271 266 262 262 260
29 13 17 17 9 7 3 355 354 348 342 336 330 324 318 313 310 309 308 306 306 305 304 303 298 301 286 285 287 284 286 284 283 278 275 271 270 269
55 56 51 50 46 40 32 24 16 9 2 356 349 342 334 329 322 319 319 315 312 312 310 305 300 303 306 294 295 294 287 286 286 284 277 278 279 277
52 53 52 50 42 33 24 17 11 4 359 354 350 348 343 337 334 329 322 321 320 319 317 319 315 315 312 302 294 296 295 298 295 291 289 286 286 283
42 43 37 32 23 13 5 1 359 357 354 350 346 344 343 339 332 327 325 320 316 315 317 320 322 322 302 297 301 298 301 295 293 292 291 287 284 282
12 12 11 5 357 351 346 344 343 344 344 345 343 341 340 338 335 332 322 319 314 311 312 311 311 314 313 309 300 299 299 294 294 289 290 286 290 290
327 335 336 338 340 340 334 331 327 327 336 344 341 339 337 335 331 329 325 323 321 316 311 315 317 318 310 304 300 302 303 298 291 294 290 289 279 284
311 304 307 313 320 325 322 316 312 317 324 338 341 336 334 331 327 324 315 320 322 320 320 315 313 315 310 313 306 301 303 307 306 301 292 289 291 289